This demonstration page uses our WeatherBlox Daily Observations layout. Learn more.

Left ArrowRight Arrow

41.86663, -103.66717

Hourly Observations for January 12, 2016

Temp ( °F °C ) Dew Point ( °F °C ) Humidity (%) Winds ( mph kmh ) Pressure ( in mb ) Visibility ( mi km ) Precip ( " mm )
12:53 am 00:53 Clear 12 -11.1 4 -15.6 70 70 NW 5 7 30.16 1021 10 16 N/A
1:53 am 01:53 Clear 12 -11.1 5 -15 73 73 NW 6 9 30.17 1022 10 16 N/A
2:53 am 02:53 Clear 17 -8.3 6 -14.4 62 62 WNW 8 13 30.18 1022 10 16 N/A
3:53 am 03:53 Clear 13 -10.6 5 -15 70 70 NW 6 9 30.20 1023 10 16 N/A
4:53 am 04:53 Clear 14 -10 4 -15.6 64 64 NW 9 15 30.21 1023 10 16 N/A
5:53 am 05:53 Clear 14 -10 4 -15.6 64 64 NW 10 17 30.23 1024 10 16 N/A
6:53 am 06:53 Clear 11 -11.7 3 -16.1 70 70 NNW 7 11 30.23 1024 10 16 N/A
7:53 am 07:53 Sunny 15 -9.4 5 -15 64 64 NNW 7 11 30.24 1024 10 16 N/A
8:53 am 08:53 Sunny 17 -8.3 7 -13.9 64 64 NW 6 9 30.24 1024 10 16 N/A
9:53 am 09:53 Sunny 27 -2.8 10 -12.2 49 49 WNW 10 17 30.22 1024 10 16 N/A
10:53 am 10:53 Sunny 33 0.6 13 -10.6 43 43 W 10 17 30.23 1024 10 16 N/A
11:53 am 11:53 Sunny 39 3.9 16 -8.9 39 39 W 18 30 30.17 1022 10 16 N/A
12:53 pm 12:53 Sunny 40 4.4 20 -6.7 45 45 W 14 22 30.15 1021 10 16 N/A
1:53 pm 13:53 Sunny 41 5 18 -7.8 39 39 W 14 22 30.14 1021 10 16 N/A
2:53 pm 14:53 Sunny 40 4.4 20 -6.7 45 45 W 9 15 30.12 1020 10 16 N/A
3:53 pm 15:53 Sunny 40 4.4 20 -6.7 45 45 WNW 9 15 30.14 1021 10 16 N/A
4:53 pm 16:53 Clear 38 3.3 21 -6.1 51 51 W 16 26 30.14 1021 10 16 N/A
5:53 pm 17:53 Clear 35 1.7 21 -6.1 57 57 W 15 24 30.17 1022 10 16 N/A
6:53 pm 18:53 Clear 31 -0.6 20 -6.7 64 64 WNW 9 15 30.22 1023 10 16 N/A
7:53 pm 19:53 Clear 30 -1.1 19 -7.2 64 64 WNW 13 20 30.21 1023 10 16 N/A
8:53 pm 20:53 Clear 24 -4.4 17 -8.3 75 75 NNW 8 13 30.22 1024 10 16 N/A
9:53 pm 21:53 Clear 22 -5.6 15 -9.4 75 75 N N/A 30.20 1023 10 16 N/A
10:53 pm 22:53 Clear 22 -5.6 15 -9.4 75 75 WNW 6 9 30.18 1022 10 16 N/A
11:53 pm 23:53 Clear 22 -5.6 15 -9.4 75 75 WNW 7 11 30.14 1021 10 16 N/A

Powered by AerisWeather